TimeEST,TemperatureF,Dew PointF,Humidity,Sea Level PressureIn,VisibilityMPH,Wind Direction,Wind SpeedMPH,Gust SpeedMPH,PrecipitationIn,Events,Conditions,WindDirDegrees,DateUTC
12:56 AM,26.1,19.9,78,30.26,10.0,Calm,Calm,-,N/A,,Overcast,0,2012-11-28 05:56:00
1:56 AM,27.0,19.9,75,30.26,10.0,West,4.6,-,N/A,,Overcast,260,2012-11-28 06:56:00
2:41 AM,26.6,19.4,74,30.20,10.0,WSW,4.6,-,N/A,,Overcast,250,2012-11-28 07:41:00
2:56 AM,27.0,19.0,72,30.26,10.0,WSW,8.1,-,N/A,,Overcast,250,2012-11-28 07:56:00
3:56 AM,26.1,19.0,75,30.25,10.0,West,5.8,-,N/A,,Mostly Cloudy,260,2012-11-28 08:56:00
4:56 AM,27.0,19.9,75,30.25,10.0,West,5.8,-,N/A,,Overcast,260,2012-11-28 09:56:00
5:56 AM,27.0,19.0,72,30.25,10.0,SW,5.8,-,N/A,,Overcast,230,2012-11-28 10:56:00
6:15 AM,26.6,19.4,74,30.18,10.0,SSW,3.5,-,N/A,,Overcast,210,2012-11-28 11:15:00
6:56 AM,27.0,19.0,72,30.25,10.0,SW,5.8,-,N/A,,Overcast,230,2012-11-28 11:56:00
7:56 AM,27.0,19.9,75,30.26,10.0,WSW,6.9,-,N/A,,Overcast,240,2012-11-28 12:56:00
8:25 AM,28.4,19.4,69,30.20,10.0,WSW,11.5,-,N/A,,Overcast,250,2012-11-28 13:25:00
8:56 AM,28.0,19.0,69,30.27,10.0,West,17.3,-,N/A,,Overcast,260,2012-11-28 13:56:00
9:56 AM,28.9,19.0,67,30.28,10.0,West,11.5,20.7,N/A,,Mostly Cloudy,260,2012-11-28 14:56:00
10:19 AM,28.4,19.4,69,30.22,10.0,WSW,11.5,23.0,N/A,,Mostly Cloudy,250,2012-11-28 15:19:00
10:49 AM,30.2,19.4,64,30.21,10.0,West,15.0,25.3,N/A,,Overcast,270,2012-11-28 15:49:00
10:56 AM,30.9,19.0,61,30.28,10.0,West,13.8,25.3,N/A,,Overcast,270,2012-11-28 15:56:00
11:56 AM,33.1,19.0,56,30.26,10.0,West,17.3,24.2,N/A,,Partly Cloudy,260,2012-11-28 16:56:00
12:56 PM,33.1,18.0,54,30.25,10.0,West,16.1,23.0,N/A,,Partly Cloudy,260,2012-11-28 17:56:00
1:56 PM,35.1,17.1,48,30.23,10.0,WSW,15.0,26.5,N/A,,Partly Cloudy,250,2012-11-28 18:56:00
2:56 PM,34.0,17.1,50,30.23,10.0,West,13.8,23.0,N/A,,Mostly Cloudy,270,2012-11-28 19:56:00
3:56 PM,33.1,18.0,54,30.25,10.0,West,9.2,-,N/A,,Overcast,270,2012-11-28 20:56:00
4:56 PM,32.0,18.0,56,30.26,10.0,West,10.4,-,N/A,,Overcast,280,2012-11-28 21:56:00
5:56 PM,30.9,18.0,59,30.29,10.0,West,10.4,18.4,N/A,,Mostly Cloudy,280,2012-11-28 22:56:00
6:56 PM,30.0,18.0,61,30.30,10.0,West,6.9,-,N/A,,Overcast,280,2012-11-28 23:56:00
7:56 PM,30.0,19.9,66,30.32,10.0,West,8.1,-,N/A,,Overcast,280,2012-11-29 00:56:00
8:56 PM,28.9,19.0,67,30.32,10.0,WSW,12.7,-,N/A,,Clear,250,2012-11-29 01:56:00
9:56 PM,28.0,19.9,72,30.31,10.0,WSW,12.7,-,N/A,,Clear,250,2012-11-29 02:56:00
10:56 PM,27.0,19.0,72,30.31,10.0,West,11.5,-,N/A,,Clear,260,2012-11-29 03:56:00
11:56 PM,27.0,19.0,72,30.32,10.0,WSW,9.2,-,N/A,,Mostly Cloudy,240,2012-11-29 04:56:00